This is the latest recevied weather packets stored in our database for station/object AA8FM-13. If no packets are shown the sender has not sent any weather packets the latest 10 day(s).
| Time | Temp. | Humidity | Pressure | Rain* | Wind** | Luminosity | Snow |
|---|---|---|---|---|---|---|---|
| 1778184553 | 17.22° C | 47% | 1007.8 hPa | 0 mm | - | 528 W/m² | - |
| 1778184249 | 16.67° C | 46% | 1007.5 hPa | 0 mm | - | 553 W/m² | - |
| 1778183945 | 16.67° C | 46% | 1007.5 hPa | 0 mm | - | 570 W/m² | - |
| 1778183643 | 16.11° C | 48% | 1008 hPa | 0 mm | - | 627 W/m² | - |
| 1778183339 | 16.67° C | 49% | 1008 hPa | 0 mm | - | 424 W/m² | - |
| 1778183036 | 16.11° C | 46% | 1008.2 hPa | 0 mm | - | 599 W/m² | - |
| 1778182732 | 17.22° C | 50% | 1008.2 hPa | 0 mm | - | 577 W/m² | - |
| 1778182430 | 16.67° C | 50% | 1008.3 hPa | 0 mm | - | 221 W/m² | - |
| 1778182126 | 15.56° C | 48% | 1008.1 hPa | 0 mm | - | 225 W/m² | - |
| 1778181822 | 16.67° C | 47% | 1008.5 hPa | 0 mm | - | 203 W/m² | - |
| 1778181518 | 16.11° C | 50% | 1008.4 hPa | 0 mm | - | 670 W/m² | - |
| 1778181215 | 15.56° C | 48% | 1008.2 hPa | 0 mm | - | 187 W/m² | - |
| 1778180912 | 15.56° C | 48% | 1008.2 hPa | 0 mm | - | 281 W/m² | - |
| 1778180610 | 16.11° C | 50% | 1008.3 hPa | 0 mm | - | 195 W/m² | - |
| 1778180309 | 17.22° C | 45% | 1008.2 hPa | 0 mm | - | 706 W/m² | - |
| 1778180005 | 16.67° C | 47% | 1008.2 hPa | 0 mm | - | 710 W/m² | - |
| 1778179702 | 15.56° C | 53% | 1008.2 hPa | 0 mm | - | 713 W/m² | - |
| 1778179400 | 16.11° C | 49% | 1008.4 hPa | 0 mm | - | 131 W/m² | - |
| 1778179097 | 16.67° C | 46% | 1008.4 hPa | 0 mm | - | 785 W/m² | - |
| 1778178794 | 16.67° C | 51% | 1008.4 hPa | 0 mm | - | 768 W/m² | - |
| 1778178491 | 16.67° C | 48% | 1008.1 hPa | 0 mm | - | 730 W/m² | - |
| 1778178186 | 16.67° C | 48% | 1008.4 hPa | 0 mm | - | 585 W/m² | - |
| 1778177883 | 16.67° C | 49% | 1008.7 hPa | 0 mm | - | 736 W/m² | - |
| 1778177579 | 16.67° C | 48% | 1008.4 hPa | 0 mm | - | 186 W/m² | - |
| 1778177276 | 16.67° C | 49% | 1008.5 hPa | 0 mm | - | 739 W/m² | - |
* Rain latest hour (hover to see other rain measurements)
** Current wind speed in m/s (hover to see current wind gust speed)